Weather History for Avoca, PA

Change the Weather History Date:

Friday, December 21, 2012

  Actual Average Record
Temperature  
Mean Temperature 41 °F 29 °F  
Max Temperature 50 °F 36 °F 57 °F (1953)
Min Temperature 32 °F 22 °F -5 °F (1942)
Degree Days  
Heating Degree Days 24 36  
Month to date heating degree days 525 691  
Since 1 July heating degree days 1752 2004  
Cooling Degree Days 0 0  
Month to date cooling degree days 0 0  
Year to date cooling degree days 864 580  
Moisture  
Dew Point 34 °F    
Average Humidity 82    
Maximum Humidity 93    
Minimum Humidity 70    
Precipitation  
Precipitation 1.32 in 0.08 in 1.57 in (1973)
Month to date precipitation 3.02 1.90  
Year to date precipitation 37.19 37.48  
Sea Level Pressure  
Sea Level Pressure 29.25 in    
Wind  
Wind Speed 13 mph (SW)    
Max Wind Speed 30 mph    
Max Gust Speed 47 mph    
Visibility 5 miles    
Events Rain , Snow    
T = Trace of Precipitation, MM = Missing Value Source: NWS Daily Summary

Daily Weather History Graph

Daily Weather History Graph

Search for Another Location

Airport:

Trip Planner

Search our weather history database for the weather conditions in past years. The results will help you decide how hot, cold, wet, or windy it might be!

Date:

Astronomy

Dec. 21, 2012 Rise Set
Actual Time 7:25 AM EST 4:36 PM EST
Civil Twilight 6:54 AM EST 5:08 PM EST
Nautical Twilight 6:19 AM EST 5:43 PM EST
Astronomical Twilight 5:45 AM EST 6:16 PM EST
Moon 12:25 PM EST (12/21) 1:07 AM EST (12/21)
Length of Visible Light 10h 14m
Length of Day
9h 11m
Waxing Gibbous, 64% of the Moon is Illuminated
Dec 21
Waxing Gibbous
Dec 28
Full
Jan 4
Last Quarter
Jan 11
New
Jan 18
First Quarter

Hourly Weather History & Observations

Time (EST) Temp. Windchill Dew Point Humidity Pressure Visibility Wind Dir Wind Speed Gust Speed Precip Events Conditions
12:54 AM 42.1 °F 37.7 °F 37.0 °F 82% 29.50 in 9.0 mi Variable 6.9 mph 18.4 mph 0.01 in Rain Light Rain
1:25 AM 42.8 °F 35.1 °F 37.4 °F 81% 29.44 in 3.0 mi SE 16.1 mph 47.2 mph 0.03 in Rain Rain
1:38 AM 42.8 °F 33.1 °F 37.4 °F 81% 29.39 in 2.5 mi SE 25.3 mph 42.6 mph 0.10 in Rain Rain
1:45 AM 44.6 °F 37.2 °F 37.4 °F 76% 29.38 in 5.0 mi SE 17.3 mph 40.3 mph 0.11 in Rain Light Rain
1:54 AM 44.1 °F 35.9 °F 39.0 °F 82% 29.37 in 7.0 mi SE 19.6 mph 43.7 mph 0.11 in Rain Light Rain
2:54 AM 46.0 °F 37.2 °F 39.9 °F 79% 29.28 in 4.0 mi SE 26.5 mph 43.7 mph 0.05 in Rain Light Rain
3:54 AM 46.9 °F - 42.1 °F 83% 29.20 in 4.0 mi SE 20.7 mph 43.7 mph 0.13 in Rain Light Rain
4:35 AM 48.2 °F - 44.6 °F 87% 29.14 in 2.5 mi SE 18.4 mph 36.8 mph 0.12 in Rain Rain
4:52 AM 48.2 °F - 44.6 °F 87% 29.14 in 3.0 mi SE 15.0 mph 35.7 mph 0.16 in Rain Rain
4:54 AM 48.9 °F - 44.1 °F 83% 29.14 in 3.0 mi SE 16.1 mph 35.7 mph 0.17 in Rain Rain
5:31 AM 50.0 °F - 46.4 °F 87% 29.18 in 4.0 mi West 11.5 mph 23.0 mph 0.08 in Rain Rain
5:36 AM 48.2 °F - 46.4 °F 93% 29.20 in 2.0 mi South 3.5 mph - 0.10 in Rain Heavy Rain
5:39 AM 48.2 °F - 46.4 °F 93% 29.20 in 1.5 mi Variable 3.5 mph - 0.14 in Rain Heavy Rain
5:49 AM 48.2 °F - 46.4 °F 93% 29.20 in 1.0 mi SSW 6.9 mph - 0.37 in Rain Heavy Rain
5:52 AM 48.2 °F - 46.4 °F 93% 29.20 in 1.2 mi SW 5.8 mph - 0.43 in Rain Heavy Rain
5:54 AM 48.0 °F - 46.0 °F 93% 29.21 in 1.5 mi SW 5.8 mph - 0.46 in Rain Heavy Rain
6:03 AM 48.2 °F - 46.4 °F 93% 29.20 in 2.5 mi SW 6.9 mph - 0.06 in Rain Heavy Rain
6:12 AM 46.4 °F 41.9 °F 44.6 °F 93% 29.20 in 3.0 mi SW 9.2 mph - 0.10 in Rain Rain
6:54 AM 42.1 °F 34.9 °F 39.0 °F 89% 29.22 in 4.0 mi SW 13.8 mph 28.8 mph 0.19 in Rain Heavy Rain
7:46 AM 39.2 °F 32.5 °F 35.6 °F 87% 29.22 in 2.5 mi WNW 10.4 mph 19.6 mph 0.12 in Rain Heavy Rain
7:54 AM 37.0 °F 28.9 °F 35.1 °F 93% 29.25 in 1.8 mi West 12.7 mph - 0.14 in Rain Heavy Rain
8:01 AM 35.6 °F 28.0 °F 33.8 °F 93% 29.23 in 1.8 mi West 10.4 mph - 0.04 in Rain Rain
8:07 AM 35.6 °F 29.9 °F 35.6 °F 100% 29.24 in 3.0 mi SW 6.9 mph - 0.04 in Rain Light Rain
8:26 AM 35.6 °F 31.7 °F 35.6 °F 100% 29.22 in 9.0 mi WSW 4.6 mph - 0.05 in Rain Light Rain
8:42 AM 35.6 °F 32.8 °F 35.6 °F 100% 29.21 in 7.0 mi WSW 3.5 mph - 0.05 in Rain Light Rain
8:54 AM 37.0 °F 34.5 °F 35.1 °F 93% 29.23 in 8.0 mi SW 3.5 mph - 0.05 in   Overcast
9:14 AM 37.4 °F 32.8 °F 35.6 °F 93% 29.21 in 10.0 mi SW 5.8 mph - N/A   Overcast
9:54 AM 39.0 °F 31.4 °F 34.0 °F 82% 29.22 in 10.0 mi West 12.7 mph - N/A   Overcast
10:16 AM 39.2 °F 32.5 °F 35.6 °F 87% 29.21 in 10.0 mi WSW 10.4 mph - N/A   Overcast
10:54 AM 37.0 °F 28.1 °F 32.0 °F 82% 29.22 in 10.0 mi WSW 15.0 mph - 0.00 in Rain Light Rain
11:54 AM 35.1 °F 26.4 °F 30.9 °F 85% 29.21 in 2.5 mi WSW 12.7 mph - 0.00 in Snow Light Snow
12:07 PM 35.6 °F 28.0 °F 30.2 °F 81% 29.20 in 3.0 mi SW 10.4 mph 18.4 mph 0.00 in Snow Light Snow
12:16 PM 35.6 °F 28.6 °F 30.2 °F 81% 29.20 in 2.0 mi WSW 9.2 mph 20.7 mph 0.00 in Snow Light Snow
12:23 PM 35.6 °F 27.1 °F 30.2 °F 81% 29.20 in 1.8 mi WSW 12.7 mph 17.3 mph 0.00 in Snow Light Snow
12:35 PM 35.6 °F 25.5 °F 30.2 °F 81% 29.20 in 2.5 mi WSW 17.3 mph 23.0 mph 0.01 in Snow Light Snow
12:43 PM 35.6 °F 27.1 °F 30.2 °F 81% 29.20 in 3.0 mi WSW 12.7 mph 23.0 mph 0.01 in Snow Light Snow
12:54 PM 35.1 °F 26.9 °F 30.0 °F 82% 29.21 in 4.0 mi SW 11.5 mph 20.7 mph 0.01 in Snow Light Snow
1:54 PM 35.1 °F 25.5 °F 27.0 °F 72% 29.21 in 9.0 mi WSW 15.0 mph 20.7 mph 0.00 in   Overcast
2:54 PM 34.0 °F 23.8 °F 27.0 °F 75% 29.23 in 7.0 mi WSW 16.1 mph - 0.00 in Snow Light Snow
3:54 PM 33.1 °F 23.9 °F 28.0 °F 82% 29.25 in 3.0 mi WSW 12.7 mph 20.7 mph 0.00 in Snow Light Snow
4:02 PM 33.8 °F 25.8 °F 26.6 °F 75% 29.24 in 2.5 mi WSW 10.4 mph 19.6 mph 0.00 in Snow Light Snow
4:24 PM 33.8 °F 25.8 °F 26.6 °F 75% 29.24 in 3.0 mi SW 10.4 mph - 0.00 in Snow Light Snow
4:54 PM 33.1 °F 23.9 °F 27.0 °F 78% 29.25 in 8.0 mi SW 12.7 mph 18.4 mph 0.00 in Snow Light Snow
5:54 PM 33.1 °F 24.4 °F 26.1 °F 75% 29.26 in 10.0 mi SW 11.5 mph 18.4 mph 0.00 in   Overcast
6:54 PM 32.0 °F 23.0 °F 28.0 °F 85% 29.28 in 8.0 mi SW 11.5 mph 19.6 mph N/A   Overcast
7:06 PM 32.0 °F 23.6 °F 28.4 °F 87% 29.27 in 5.0 mi SW 10.4 mph 23.0 mph 0.00 in Snow Light Snow
7:24 PM 32.0 °F 22.1 °F 28.4 °F 87% 29.27 in 5.0 mi SW 13.8 mph 19.6 mph 0.00 in Snow Light Snow
7:54 PM 32.0 °F 23.0 °F 28.0 °F 85% 29.29 in 6.0 mi SW 11.5 mph - 0.00 in   Overcast
8:40 PM 32.0 °F 23.0 °F 28.4 °F 87% 29.28 in 10.0 mi SW 11.5 mph 18.4 mph 0.00 in   Overcast
8:54 PM 32.0 °F 22.1 °F 28.0 °F 85% 29.29 in 10.0 mi SW 13.8 mph - 0.00 in   Overcast
9:04 PM 32.0 °F 22.5 °F 28.4 °F 87% 29.28 in 10.0 mi SW 12.7 mph 18.4 mph N/A   Overcast
9:23 PM 32.0 °F 23.6 °F 28.4 °F 87% 29.28 in 10.0 mi SW 10.4 mph 19.6 mph N/A   Overcast
9:41 PM 33.8 °F 26.4 °F 28.4 °F 81% 29.28 in 10.0 mi SW 9.2 mph - N/A   Overcast
9:54 PM 33.1 °F 24.4 °F 28.0 °F 82% 29.29 in 9.0 mi SW 11.5 mph 18.4 mph N/A   Overcast
10:40 PM 32.0 °F 23.6 °F 28.4 °F 87% 29.29 in 2.5 mi SW 10.4 mph 17.3 mph 0.00 in Snow Light Snow
10:48 PM 32.0 °F 22.1 °F 28.4 °F 87% 29.29 in 1.8 mi SW 13.8 mph 18.4 mph 0.00 in Snow Light Snow
10:54 PM 32.0 °F 24.8 °F 28.9 °F 88% 29.31 in 1.8 mi SW 8.1 mph 18.4 mph 0.00 in Snow Light Snow
11:03 PM 32.0 °F 22.5 °F 28.4 °F 87% 29.29 in 2.0 mi SW 12.7 mph 19.6 mph 0.00 in Snow Light Snow
11:09 PM 32.0 °F 23.6 °F 28.4 °F 87% 29.29 in 1.8 mi SW 10.4 mph 19.6 mph 0.00 in Snow Light Snow
11:35 PM 32.0 °F 23.0 °F 28.4 °F 87% 29.29 in 2.0 mi SW 11.5 mph 19.6 mph 0.00 in Snow Light Snow
11:54 PM 32.0 °F 23.6 °F 28.9 °F 88% 29.31 in 1.8 mi SW 10.4 mph 23.0 mph 0.00 in Snow Light Snow